CAPE
1466 968 1151 962 1115 1087 899 855 796 861 837 852 678 358 118 5 0 0 0 0 0 0 0 0 0 0 0 0 0 0 0 0
1406 1571 1421 1499 1353 697 610 590 562 620 563 339 60 0 1 0 0 0 0 0 0 0 0 0 0 0 0 0 0 0 0 0
1322 1538 1801 1581 1572 1059 564 584 417 266 195 9 0 2 0 0 0 0 0 0 0 0 0 0 0 0 0 0 0 0 0 0
1026 1410 1842 1583 1431 1242 980 646 572 390 139 0 77 3 0 0 0 0 0 0 0 0 0 0 0 0 0 0 0 0 0 0
1102 1371 1723 1822 1424 1666 1421 1166 752 301 44 34 9 0 0 0 0 0 0 0 0 0 0 0 0 0 0 0 0 0 0 21
933 1179 1193 1388 1563 1280 1164 758 319 24 20 8 2 0 0 0 0 0 0 0 0 0 0 0 0 0 0 0 0 0 2 13
1103 946 866 783 1834 1451 1018 486 3 0 0 8 0 0 0 0 0 0 0 0 0 0 0 0 0 0 0 0 0 0 1 2
935 835 701 933 1165 1164 621 31 1 0 0 0 0 0 0 0 0 0 0 0 0 0 0 0 0 0 0 0 0 0 0 0
808 635 922 813 769 741 265 1 0 0 0 0 0 0 0 0 0 0 0 0 0 0 0 0 0 0 0 0 0 0 0 0
1343 530 380 394 339 35 5 4 0 0 0 0 0 0 0 0 0 0 0 0 0 0 0 0 0 0 0 0 0 0 0 0
1131 1034 454 196 28 2 2 2 1 0 0 0 0 0 0 0 0 0 0 0 0 0 0 0 0 0 0 0 0 0 0 0
909 1227 475 411 11 1 1 1 0 0 0 0 0 0 0 0 0 0 0 0 0 0 0 0 0 0 0 0 0 0 0 0
862 1179 472 105 3 1 0 1 0 0 0 0 0 0 0 0 0 0 0 0 0 0 0 0 0 0 0 0 0 0 0 0
862 1144 874 130 35 2 1 1 0 0 0 0 0 0 0 0 0 0 0 0 0 0 0 0 0 0 0 0 0 0 0 0
539 1050 1177 84 44 3 0 0 0 0 0 0 0 0 0 0 0 0 0 0 0 0 0 0 0 0 0 0 0 0 0 0
430 644 1056 191 15 1 0 0 0 0 0 0 0 0 0 0 0 0 0 0 0 0 0 0 0 0 0 0 0 0 0 0
147 608 992 473 3 1 1 0 0 0 0 0 0 0 0 0 0 0 0 0 0 0 0 0 0 0 0 0 0 0 0 0
2 402 852 572 7 3 6 1 0 0 0 0 1 0 0 0 0 0 0 0 0 0 0 0 0 0 0 0 0 0 0 0
0 7 533 937 5 4 4 6 0 0 0 0 0 1 3 0 0 0 0 0 0 0 0 0 0 0 0 0 0 0 0 0
9 9 126 772 137 11 3 2 0 0 0 0 0 0 3 0 0 0 0 0 0 0 0 0 0 0 0 0 0 0 0 0
CIN
-193 -252 -188 -210 -167 -158 -180 -176 -152 -103 -109 -92 -108 -166 -252 -77 0 0 0 0 0 0 0 0 0 0 0 0 0 0 0 0
-233 -166 -155 -108 -106 -216 -219 -209 -185 -132 -117 -162 -259 0 0 0 0 0 0 0 0 0 0 0 0 0 0 0 0 0 0 0
-221 -157 -108 -107 -83 -134 -218 -191 -225 -230 -210 -248 0 -48 0 0 0 0 0 0 0 0 0 0 0 0 0 0 0 0 0 0
-251 -157 -86 -110 -91 -91 -115 -146 -140 -168 -233 0 -237 -63 0 0 0 0 0 0 0 0 0 0 0 0 0 0 0 0 0 0
-250 -161 -96 -86 -108 -62 -62 -71 -109 -181 -238 -244 -29 0 0 0 0 0 0 0 0 0 0 0 0 0 0 0 0 0 0 0
-259 -200 -173 -137 -83 -117 -104 -160 -222 -261 -262 0 0 0 0 0 0 0 0 0 0 0 0 0 0 0 0 0 0 0 0 0
-234 -248 -232 -219 -60 -86 -129 -197 0 0 0 0 0 0 0 0 0 0 0 0 0 0 0 0 0 0 0 0 0 0 0 0
-223 -247 -252 -165 -126 -110 -197 -41 0 0 0 0 0 0 0 0 0 0 0 0 0 0 0 0 0 0 0 0 0 0 0 0
-247 -305 -220 -189 -175 -146 -270 0 0 0 0 0 0 0 0 0 0 0 0 0 0 0 0 0 0 0 0 0 0 0 0 0
-74 -307 -352 -288 -284 -377 0 0 0 0 0 0 0 0 0 0 0 0 0 0 0 0 0 0 0 0 0 0 0 0 0 0
-53 -135 -299 -399 -513 0 0 0 0 0 0 0 0 0 0 0 0 0 0 0 0 0 0 0 0 0 0 0 0 0 0 0
-114 -81 -308 -307 -571 0 0 0 0 0 0 0 0 0 0 0 0 0 0 0 0 0 0 0 0 0 0 0 0 0 0 0
-116 -78 -316 -467 0 0 0 0 0 0 0 0 0 0 0 0 0 0 0 0 0 0 0 0 0 0 0 0 0 0 0 0
-144 -61 -138 -521 -581 0 0 0 0 0 0 0 0 0 0 0 0 0 0 0 0 0 0 0 0 0 0 0 0 0 0 0
-169 -93 -97 -632 -629 0 0 0 0 0 0 0 0 0 0 0 0 0 0 0 0 0 0 0 0 0 0 0 0 0 0 0
-203 -87 -21 -485 -786 0 0 0 0 0 0 0 0 0 0 0 0 0 0 0 0 0 0 0 0 0 0 0 0 0 0 0
-346 -123 -28 -271 -682 0 0 0 0 0 0 0 0 0 0 0 0 0 0 0 0 0 0 0 0 0 0 0 0 0 0 0
-369 -185 -39 -168 -731 0 0 0 0 0 0 0 0 0 0 0 0 0 0 0 0 0 0 0 0 0 0 0 0 0 0 0
0 -38 -78 -25 -344 -468 0 0 0 0 0 0 -1 0 0 0 0 0 0 0 0 0 0 0 0 0 0 0 0 0 0 0
0 -2 -248 -12 -309 -554 0 0 0 0 0 0 0 0 0 0 0 0 0 0 0 0 0 0 0 0 0 0 0 0 0 0
Wind_Speed
11 15 15 11 11 12 13 15 13 13 13 13 13 12 12 15 14 14 15 14 15 14 14 13 13 13 13 12 8 7 6 5
12 13 14 14 13 13 14 13 13 12 13 13 13 12 10 11 13 14 14 15 14 15 16 15 15 14 13 11 6 4 8 7
11 14 15 13 14 14 15 15 15 15 14 14 13 11 13 13 9 12 13 14 14 14 15 16 16 15 12 5 6 6 7 7
14 17 16 15 11 13 14 13 12 12 12 13 11 11 10 9 12 11 12 13 13 12 13 14 11 9 7 7 6 7 7 9
18 17 13 17 12 12 8 8 8 9 12 13 10 9 9 9 9 9 9 12 9 11 11 5 7 6 6 6 8 7 7 11
20 17 14 15 11 9 11 9 9 8 9 13 9 8 10 9 8 9 8 6 7 7 4 6 7 8 9 9 8 7 8 8
21 16 17 14 16 12 12 12 9 10 8 12 10 10 9 9 8 8 7 7 8 6 8 7 8 9 9 10 9 9 10 8
16 18 18 15 14 14 13 10 10 11 8 12 14 10 10 10 9 8 8 8 7 7 8 9 7 8 10 10 10 9 9 9
17 17 18 16 18 15 12 11 11 11 10 15 15 13 12 11 9 9 8 7 8 7 8 9 9 8 12 10 10 9 9 9
19 14 18 16 15 12 11 10 10 10 10 11 18 16 15 12 10 9 9 8 8 8 8 9 9 9 9 9 8 8 8 7
18 17 20 19 14 11 12 13 11 10 11 11 18 17 16 12 10 10 11 9 9 9 8 9 9 9 9 8 7 8 7 7
18 15 18 19 13 10 9 9 10 11 12 13 17 15 17 13 11 11 12 10 10 10 11 9 10 10 10 9 7 7 6 6
18 19 17 13 12 11 10 13 11 10 11 15 16 13 17 16 11 13 12 11 11 12 11 13 10 11 10 9 8 7 6 5
18 20 17 16 12 11 9 9 8 9 9 12 13 14 15 14 14 14 15 11 13 14 13 11 10 13 7 8 8 5 5 5
18 21 18 17 17 10 6 6 5 7 10 11 14 16 15 15 13 12 15 13 12 15 13 12 9 11 10 3 6 5 10 6
17 18 19 16 19 17 20 12 11 9 11 11 11 14 17 14 14 13 14 12 14 13 10 10 9 11 7 4 2 8 5 7
16 17 19 17 19 19 17 17 12 9 12 15 15 15 15 15 14 12 12 11 13 14 12 12 9 9 8 8 5 4 3 7
18 18 20 17 21 22 23 22 17 14 15 14 13 12 11 16 13 12 10 9 11 10 9 6 6 7 8 8 8 5 8 4
18 21 21 18 21 22 24 24 21 21 20 16 16 13 13 15 14 12 11 10 11 10 10 11 6 9 9 6 5 4 4 4
23 24 23 22 20 23 19 20 14 13 17 15 15 15 16 18 15 11 12 13 11 11 8 9 10 8 9 6 5 5 6 5
Wind_Direction
179 183 181 179 173 163 156 157 161 165 154 149 143 141 150 152 148 143 140 138 134 129 122 115 109 105 102 96 76 7 80 77
183 181 183 182 176 153 155 157 154 147 138 135 133 136 151 147 142 143 142 140 137 131 126 120 112 103 98 98 118 205 88 90
187 190 181 183 181 173 164 159 148 138 137 135 140 170 166 156 127 140 140 138 132 130 126 120 111 102 100 111 239 86 102 89
196 197 190 181 180 172 180 174 175 171 166 163 178 166 169 173 129 134 132 133 128 128 127 136 170 132 125 180 95 102 91 89
199 197 196 181 187 180 183 185 173 172 172 179 184 173 161 161 149 153 151 160 150 154 165 170 123 125 109 108 117 119 105 81
204 197 191 192 185 177 180 173 171 168 180 182 180 184 176 170 170 168 168 183 160 166 145 123 123 113 113 118 115 117 107 108
209 191 195 195 195 187 181 185 173 168 175 187 191 188 181 176 171 173 178 168 173 163 145 136 126 124 123 118 108 102 112 104
213 201 198 200 195 191 189 165 162 171 175 187 199 190 179 177 172 175 175 178 168 157 153 141 132 128 119 117 112 110 107 111
204 208 199 201 200 193 189 176 168 174 175 186 192 197 181 177 176 174 174 166 163 144 154 137 136 131 119 115 112 109 110 114
214 202 203 201 199 188 185 178 173 175 176 179 189 191 184 182 176 175 168 166 166 159 162 151 143 143 133 125 116 111 107 105
227 198 206 199 202 192 187 178 177 179 179 183 190 186 185 185 177 171 168 172 172 166 163 159 147 141 132 123 119 117 118 111
231 209 206 205 191 190 182 180 189 183 186 186 179 187 183 185 177 170 180 174 172 169 163 163 157 146 135 122 115 115 119 124
233 222 202 199 196 186 188 191 186 189 191 189 175 183 183 187 179 171 184 182 177 172 163 161 152 149 131 122 114 114 126 129
243 230 203 202 200 201 206 198 206 189 181 179 180 175 182 185 179 179 182 177 174 177 170 163 163 173 160 165 155 147 137 141
249 234 207 195 200 192 196 167 147 179 186 181 181 178 178 177 176 182 181 176 177 178 175 170 173 185 203 236 164 169 144 160
275 257 233 204 193 185 183 188 185 199 200 185 179 183 180 178 175 179 185 180 172 179 170 194 157 195 185 210 325 114 181 156
286 264 243 203 199 194 189 189 197 184 182 180 183 182 181 179 174 173 174 182 172 176 170 185 169 203 203 176 178 164 182 157
310 278 257 201 202 201 203 196 190 181 183 183 186 175 176 181 173 167 161 169 155 164 160 173 152 210 201 198 180 174 179 172
316 299 264 218 212 207 203 203 194 193 179 177 177 178 179 177 164 157 155 157 150 153 156 150 176 210 194 189 171 144 157 164
323 310 284 251 212 213 208 203 196 199 186 177 182 187 180 170 158 150 147 143 145 151 149 118 183 174 185 175 153 140 141 153